contact:dominique.lefevre@mio.osupytheas.fr, maurice.libes@osupytheas.fr, didier.mallarino@osupytheas.fr
Project:EMSO http://www.emso-fr.org/EMSO-France
Depth: 2436.0 m
Title:EMSO Ligure Ouest : Data MII capteur MICROCAT
DateTime_Computer,Latitude,Longitude,Temperature,Conductivity,Pressure,DateTime_Instrument
DateTime_Computer,Latitude,Longitude,degC,S m-1,dbar,DateTime_Instrument
2023-10-02T00:02:42Z,42.805,6.029,13.3072,4.60185,2470.777,2023-10-02T02:05:06Z
2023-10-02T00:05:45Z,42.805,6.029,13.3075,4.60185,2470.754,2023-10-02T02:08:09Z
2023-10-02T00:08:49Z,42.805,6.029,13.3067,4.60182,2470.717,2023-10-02T02:11:12Z
2023-10-02T00:11:52Z,42.805,6.029,13.3063,4.60166,2470.73,2023-10-02T02:14:15Z
2023-10-02T00:14:55Z,42.805,6.029,13.3059,4.60182,2470.717,2023-10-02T02:17:18Z
2023-10-02T00:17:58Z,42.805,6.029,13.3056,4.60177,2470.73,2023-10-02T02:20:21Z
2023-10-02T00:21:01Z,42.805,6.029,13.3069,4.60190,2470.693,2023-10-02T02:23:24Z
2023-10-02T00:24:04Z,42.805,6.029,13.3070,4.60199,2470.74,2023-10-02T02:26:27Z
2023-10-02T00:27:07Z,42.805,6.029,13.3069,4.60187,2470.707,2023-10-02T02:29:30Z
2023-10-02T00:30:10Z,42.805,6.029,13.3070,4.60197,2470.693,2023-10-02T02:32:33Z
2023-10-02T00:33:13Z,42.805,6.029,13.3070,4.60193,2470.693,2023-10-02T02:35:37Z
2023-10-02T00:36:16Z,42.805,6.029,13.3077,4.60218,2470.717,2023-10-02T02:38:40Z
2023-10-02T00:39:19Z,42.805,6.029,13.3057,4.60173,2470.693,2023-10-02T02:41:43Z
2023-10-02T00:42:22Z,42.805,6.029,13.3063,4.60198,2470.67,2023-10-02T02:44:46Z
2023-10-02T00:45:25Z,42.805,6.029,13.3066,4.60183,2470.693,2023-10-02T02:47:49Z
2023-10-02T00:48:29Z,42.805,6.029,13.3067,4.60189,2470.717,2023-10-02T02:50:52Z
2023-10-02T00:51:32Z,42.805,6.029,13.3063,4.60176,2470.707,2023-10-02T02:53:55Z
2023-10-02T00:54:35Z,42.805,6.029,13.3063,4.60165,2470.693,2023-10-02T02:56:58Z
2023-10-02T00:57:38Z,42.805,6.029,13.3084,4.60198,2470.656,2023-10-02T03:00:01Z
2023-10-02T01:00:41Z,42.805,6.029,13.3058,4.60200,2470.693,2023-10-02T03:03:04Z
2023-10-02T01:03:44Z,42.805,6.029,13.3063,4.60201,2470.707,2023-10-02T03:06:07Z
2023-10-02T01:06:47Z,42.805,6.029,13.3056,4.60148,2470.684,2023-10-02T03:09:10Z
2023-10-02T01:09:50Z,42.805,6.029,13.3056,4.60167,2470.717,2023-10-02T03:12:13Z
2023-10-02T01:12:53Z,42.805,6.029,13.3078,4.60175,2470.707,2023-10-02T03:15:17Z
2023-10-02T01:15:56Z,42.805,6.029,13.3061,4.60163,2470.693,2023-10-02T03:18:20Z
2023-10-02T01:18:59Z,42.805,6.029,13.3063,4.60190,2470.707,2023-10-02T03:21:23Z
2023-10-02T01:22:02Z,42.805,6.029,13.3059,4.60183,2470.67,2023-10-02T03:24:26Z
2023-10-02T01:25:05Z,42.805,6.029,13.3046,4.60164,2470.67,2023-10-02T03:27:29Z
2023-10-02T01:28:09Z,42.805,6.029,13.3061,4.60144,2470.646,2023-10-02T03:30:32Z
2023-10-02T01:31:12Z,42.805,6.029,13.3058,4.60160,2470.67,2023-10-02T03:33:35Z
2023-10-02T01:34:15Z,42.805,6.029,13.3064,4.60159,2470.684,2023-10-02T03:36:38Z
2023-10-02T01:37:18Z,42.805,6.029,13.3048,4.60123,2470.684,2023-10-02T03:39:41Z
2023-10-02T01:40:21Z,42.805,6.029,13.3055,4.60146,2470.646,2023-10-02T03:42:44Z
2023-10-02T01:43:24Z,42.805,6.029,13.3056,4.60164,2470.67,2023-10-02T03:45:47Z
2023-10-02T01:46:27Z,42.805,6.029,13.3069,4.60174,2470.646,2023-10-02T03:48:50Z
2023-10-02T01:49:30Z,42.805,6.029,13.3040,4.60126,2470.624,2023-10-02T03:51:53Z
2023-10-02T01:52:33Z,42.805,6.029,13.3043,4.60134,2470.684,2023-10-02T03:54:57Z
2023-10-02T01:55:36Z,42.805,6.029,13.3048,4.60150,2470.67,2023-10-02T03:58:00Z
2023-10-02T01:58:39Z,42.805,6.029,13.3041,4.60139,2470.637,2023-10-02T04:01:03Z
2023-10-02T02:01:42Z,42.805,6.029,13.3048,4.60138,2470.661,2023-10-02T04:04:06Z
2023-10-02T02:04:45Z,42.805,6.029,13.3043,4.60137,2470.67,2023-10-02T04:07:09Z
2023-10-02T02:07:48Z,42.805,6.029,13.3047,4.60147,2470.693,2023-10-02T04:10:12Z
2023-10-02T02:10:52Z,42.805,6.029,13.3041,4.60128,2470.624,2023-10-02T04:13:15Z
2023-10-02T02:13:55Z,42.805,6.029,13.3042,4.60129,2470.646,2023-10-02T04:16:18Z
2023-10-02T02:16:58Z,42.805,6.029,13.3046,4.60126,2470.624,2023-10-02T04:19:21Z
2023-10-02T02:20:01Z,42.805,6.029,13.3048,4.60137,2470.646,2023-10-02T04:22:24Z
2023-10-02T02:23:04Z,42.805,6.029,13.3045,4.60146,2470.624,2023-10-02T04:25:27Z
2023-10-02T02:26:07Z,42.805,6.029,13.3046,4.60155,2470.67,2023-10-02T04:28:30Z
2023-10-02T02:29:10Z,42.805,6.029,13.3049,4.60171,2470.637,2023-10-02T04:31:33Z
2023-10-02T02:32:13Z,42.805,6.029,13.3041,4.60179,2470.67,2023-10-02T04:34:36Z
2023-10-02T02:35:16Z,42.805,6.029,13.3037,4.60127,2470.661,2023-10-02T04:37:40Z
2023-10-02T02:38:19Z,42.805,6.029,13.3039,4.60150,2470.624,2023-10-02T04:40:43Z
2023-10-02T02:41:22Z,42.805,6.029,13.3039,4.60110,2470.624,2023-10-02T04:43:46Z
2023-10-02T02:44:25Z,42.805,6.029,13.3054,4.60146,2470.646,2023-10-02T04:46:49Z
2023-10-02T02:47:29Z,42.805,6.029,13.3048,4.60144,2470.624,2023-10-02T04:49:52Z
2023-10-02T02:50:32Z,42.805,6.029,13.3045,4.60132,2470.624,2023-10-02T04:52:55Z
2023-10-02T02:53:35Z,42.805,6.029,13.3052,4.60143,2470.646,2023-10-02T04:55:58Z
2023-10-02T02:56:38Z,42.805,6.029,13.3054,4.60144,2470.646,2023-10-02T04:59:01Z
2023-10-02T02:59:41Z,42.805,6.029,13.3055,4.60140,2470.624,2023-10-02T05:02:04Z
2023-10-02T03:02:44Z,42.805,6.029,13.3048,4.60154,2470.646,2023-10-02T05:05:07Z
2023-10-02T03:05:47Z,42.805,6.029,13.3063,4.60169,2470.614,2023-10-02T05:08:10Z
2023-10-02T03:08:50Z,42.805,6.029,13.3039,4.60162,2470.646,2023-10-02T05:11:13Z
2023-10-02T03:11:53Z,42.805,6.029,13.3043,4.60155,2470.624,2023-10-02T05:14:17Z
2023-10-02T03:14:56Z,42.805,6.029,13.3034,4.60130,2470.684,2023-10-02T05:17:20Z
2023-10-02T03:17:59Z,42.805,6.029,13.3045,4.60136,2470.646,2023-10-02T05:20:23Z
2023-10-02T03:21:02Z,42.805,6.029,13.3045,4.60132,2470.624,2023-10-02T05:23:26Z
2023-10-02T03:24:05Z,42.805,6.029,13.3051,4.60153,2470.624,2023-10-02T05:26:29Z
2023-10-02T03:27:08Z,42.805,6.029,13.3046,4.60150,2470.624,2023-10-02T05:29:32Z
2023-10-02T03:30:12Z,42.805,6.029,13.3056,4.60164,2470.6,2023-10-02T05:32:35Z
2023-10-02T03:33:15Z,42.805,6.029,13.3040,4.60115,2470.624,2023-10-02T05:35:38Z
2023-10-02T03:36:18Z,42.805,6.029,13.3042,4.60170,2470.624,2023-10-02T05:38:41Z
2023-10-02T03:39:21Z,42.805,6.029,13.3042,4.60128,2470.646,2023-10-02T05:41:44Z
2023-10-02T03:42:24Z,42.805,6.029,13.3045,4.60127,2470.646,2023-10-02T05:44:47Z
2023-10-02T03:45:27Z,42.805,6.029,13.3045,4.60125,2470.624,2023-10-02T05:47:50Z
2023-10-02T03:48:30Z,42.805,6.029,13.3050,4.60185,2470.646,2023-10-02T05:50:53Z
2023-10-02T03:51:33Z,42.805,6.029,13.3049,4.60139,2470.646,2023-10-02T05:53:57Z
2023-10-02T03:54:36Z,42.805,6.029,13.3038,4.60155,2470.637,2023-10-02T05:57:00Z
2023-10-02T03:57:39Z,42.805,6.029,13.3039,4.60163,2470.67,2023-10-02T06:00:03Z
2023-10-02T04:00:42Z,42.805,6.029,13.3039,4.60140,2470.624,2023-10-02T06:03:06Z
2023-10-02T04:03:45Z,42.805,6.029,13.3039,4.60135,2470.646,2023-10-02T06:06:09Z
2023-10-02T04:06:48Z,42.805,6.029,13.3041,4.60139,2470.624,2023-10-02T06:09:12Z
2023-10-02T04:09:52Z,42.805,6.029,13.3043,4.60133,2470.661,2023-10-02T06:12:15Z
2023-10-02T04:12:55Z,42.805,6.029,13.3047,4.60134,2470.624,2023-10-02T06:15:18Z
2023-10-02T04:15:58Z,42.805,6.029,13.3039,4.60135,2470.646,2023-10-02T06:18:21Z
2023-10-02T04:19:01Z,42.805,6.029,13.3043,4.60129,2470.646,2023-10-02T06:21:24Z
2023-10-02T04:22:04Z,42.805,6.029,13.3045,4.60135,2470.661,2023-10-02T06:24:27Z
2023-10-02T04:25:07Z,42.805,6.029,13.3041,4.60137,2470.646,2023-10-02T06:27:30Z
2023-10-02T04:28:10Z,42.805,6.029,13.3050,4.60126,2470.67,2023-10-02T06:30:33Z
2023-10-02T04:31:13Z,42.805,6.029,13.3046,4.60157,2470.67,2023-10-02T06:33:36Z
2023-10-02T04:34:16Z,42.805,6.029,13.3046,4.60142,2470.624,2023-10-02T06:36:40Z
2023-10-02T04:37:19Z,42.805,6.029,13.3045,4.60135,2470.67,2023-10-02T06:39:43Z
2023-10-02T04:40:22Z,42.805,6.029,13.3044,4.60135,2470.661,2023-10-02T06:42:46Z
2023-10-02T04:43:25Z,42.805,6.029,13.3042,4.60157,2470.656,2023-10-02T06:45:49Z
2023-10-02T04:46:28Z,42.805,6.029,13.3040,4.60152,2470.684,2023-10-02T06:48:52Z
2023-10-02T04:49:32Z,42.805,6.029,13.3047,4.60131,2470.67,2023-10-02T06:51:55Z
2023-10-02T04:52:35Z,42.805,6.029,13.3043,4.60185,2470.646,2023-10-02T06:54:58Z
2023-10-02T04:55:38Z,42.805,6.029,13.3057,4.60161,2470.67,2023-10-02T06:58:01Z
2023-10-02T04:58:41Z,42.805,6.029,13.3057,4.60167,2470.646,2023-10-02T07:01:04Z
2023-10-02T05:01:44Z,42.805,6.029,13.3054,4.60141,2470.693,2023-10-02T07:04:07Z
2023-10-02T05:04:47Z,42.805,6.029,13.3042,4.60155,2470.684,2023-10-02T07:07:10Z
2023-10-02T05:07:50Z,42.805,6.029,13.3048,4.60167,2470.693,2023-10-02T07:10:13Z
2023-10-02T05:10:53Z,42.805,6.029,13.3052,4.60173,2470.684,2023-10-02T07:13:16Z
2023-10-02T05:13:56Z,42.805,6.029,13.3057,4.60166,2470.693,2023-10-02T07:16:20Z
2023-10-02T05:16:59Z,42.805,6.029,13.3054,4.60149,2470.67,2023-10-02T07:19:23Z
2023-10-02T05:20:02Z,42.805,6.029,13.3052,4.60182,2470.73,2023-10-02T07:22:26Z
2023-10-02T05:23:05Z,42.805,6.029,13.3049,4.60162,2470.717,2023-10-02T07:25:29Z
2023-10-02T05:26:08Z,42.805,6.029,13.3046,4.60180,2470.73,2023-10-02T07:28:32Z
2023-10-02T05:29:11Z,42.805,6.029,13.3043,4.60142,2470.707,2023-10-02T07:31:35Z
2023-10-02T05:32:15Z,42.805,6.029,13.3044,4.60137,2470.693,2023-10-02T07:34:38Z
2023-10-02T05:35:18Z,42.805,6.029,13.3047,4.60164,2470.73,2023-10-02T07:37:41Z
2023-10-02T05:38:21Z,42.805,6.029,13.3067,4.60181,2470.67,2023-10-02T07:40:44Z
2023-10-02T05:41:24Z,42.805,6.029,13.3070,4.60195,2470.717,2023-10-02T07:43:47Z
2023-10-02T05:44:27Z,42.805,6.029,13.3041,4.60205,2470.74,2023-10-02T07:46:50Z
2023-10-02T05:47:30Z,42.805,6.029,13.3049,4.60152,2470.726,2023-10-02T07:49:53Z
2023-10-02T05:50:33Z,42.805,6.029,13.3043,4.60165,2470.754,2023-10-02T07:52:56Z
2023-10-02T05:53:36Z,42.805,6.029,13.3045,4.60137,2470.74,2023-10-02T07:56:00Z
2023-10-02T05:56:39Z,42.805,6.029,13.3051,4.60157,2470.717,2023-10-02T07:59:03Z
2023-10-02T05:59:42Z,42.805,6.029,13.3048,4.60152,2470.74,2023-10-02T08:02:06Z
2023-10-02T06:02:45Z,42.805,6.029,13.3042,4.60157,2470.73,2023-10-02T08:05:09Z
2023-10-02T06:05:48Z,42.805,6.029,13.3054,4.60185,2470.73,2023-10-02T08:08:12Z
2023-10-02T06:08:51Z,42.805,6.029,13.3052,4.60175,2470.73,2023-10-02T08:11:15Z
2023-10-02T06:11:55Z,42.805,6.029,13.3045,4.60160,2470.717,2023-10-02T08:14:18Z
2023-10-02T06:14:58Z,42.805,6.029,13.3057,4.60138,2470.787,2023-10-02T08:17:21Z
2023-10-02T06:18:01Z,42.805,6.029,13.3043,4.60201,2470.8,2023-10-02T08:20:24Z
2023-10-02T06:21:04Z,42.805,6.029,13.3072,4.60179,2470.763,2023-10-02T08:23:27Z
2023-10-02T06:24:07Z,42.805,6.029,13.3057,4.60152,2470.763,2023-10-02T08:26:30Z
2023-10-02T06:27:10Z,42.805,6.029,13.3043,4.60170,2470.777,2023-10-02T08:29:33Z
2023-10-02T06:30:13Z,42.805,6.029,13.3061,4.60175,2470.74,2023-10-02T08:32:36Z
2023-10-02T06:33:16Z,42.805,6.029,13.3046,4.60155,2470.763,2023-10-02T08:35:40Z
2023-10-02T06:36:19Z,42.805,6.029,13.3044,4.60175,2470.787,2023-10-02T08:38:43Z
2023-10-02T06:39:22Z,42.805,6.029,13.3049,4.60197,2470.787,2023-10-02T08:41:46Z
2023-10-02T06:42:25Z,42.805,6.029,13.3042,4.60200,2470.824,2023-10-02T08:44:49Z
2023-10-02T06:45:28Z,42.805,6.029,13.3059,4.60135,2470.787,2023-10-02T08:47:52Z
2023-10-02T06:48:32Z,42.805,6.029,13.3048,4.60154,2470.787,2023-10-02T08:50:55Z
2023-10-02T06:51:35Z,42.805,6.029,13.3069,4.60150,2470.81,2023-10-02T08:53:58Z
2023-10-02T06:54:38Z,42.805,6.029,13.3056,4.60152,2470.824,2023-10-02T08:57:01Z
2023-10-02T06:57:41Z,42.805,6.029,13.3051,4.60155,2470.824,2023-10-02T09:00:04Z
2023-10-02T07:00:44Z,42.805,6.029,13.3041,4.60166,2470.8,2023-10-02T09:03:07Z
2023-10-02T07:03:47Z,42.805,6.029,13.3058,4.60149,2470.824,2023-10-02T09:06:10Z
2023-10-02T07:06:50Z,42.805,6.029,13.3061,4.60183,2470.81,2023-10-02T09:09:13Z
2023-10-02T07:09:53Z,42.805,6.029,13.3076,4.60169,2470.833,2023-10-02T09:12:16Z
2023-10-02T07:12:56Z,42.805,6.029,13.3050,4.60151,2470.824,2023-10-02T09:15:19Z
2023-10-02T07:15:59Z,42.805,6.029,13.3077,4.60132,2470.81,2023-10-02T09:18:23Z
2023-10-02T07:19:02Z,42.805,6.029,13.3074,4.60129,2470.824,2023-10-02T09:21:26Z
2023-10-02T07:22:05Z,42.805,6.029,13.3050,4.60141,2470.847,2023-10-02T09:24:29Z
2023-10-02T07:25:08Z,42.805,6.029,13.3054,4.60163,2470.833,2023-10-02T09:27:32Z
2023-10-02T07:28:11Z,42.805,6.029,13.3054,4.60183,2470.871,2023-10-02T09:30:35Z
2023-10-02T07:31:15Z,42.805,6.029,13.3052,4.60221,2470.847,2023-10-02T09:33:38Z
2023-10-02T07:34:18Z,42.805,6.029,13.3076,4.60119,2470.871,2023-10-02T09:36:41Z
2023-10-02T07:37:21Z,42.805,6.029,13.3076,4.60143,2470.894,2023-10-02T09:39:44Z
2023-10-02T07:40:24Z,42.805,6.029,13.3073,4.60119,2470.833,2023-10-02T09:42:47Z
2023-10-02T07:43:27Z,42.805,6.029,13.3071,4.60120,2470.871,2023-10-02T09:45:50Z
2023-10-02T07:46:30Z,42.805,6.029,13.3064,4.60144,2470.833,2023-10-02T09:48:53Z
2023-10-02T07:49:33Z,42.805,6.029,13.3081,4.60152,2470.857,2023-10-02T09:51:56Z
2023-10-02T07:52:36Z,42.805,6.029,13.3075,4.60152,2470.833,2023-10-02T09:55:00Z
2023-10-02T07:55:39Z,42.805,6.029,13.3050,4.60140,2470.833,2023-10-02T09:58:03Z
2023-10-02T07:58:42Z,42.805,6.029,13.3073,4.60151,2470.847,2023-10-02T10:01:06Z
2023-10-02T08:01:45Z,42.805,6.029,13.3054,4.60167,2470.824,2023-10-02T10:04:09Z
2023-10-02T08:04:48Z,42.805,6.029,13.3065,4.60140,2470.871,2023-10-02T10:07:12Z
2023-10-02T08:07:52Z,42.805,6.029,13.3082,4.60144,2470.847,2023-10-02T10:10:15Z
2023-10-02T08:10:55Z,42.805,6.029,13.3053,4.60144,2470.833,2023-10-02T10:13:18Z
2023-10-02T08:13:58Z,42.805,6.029,13.3055,4.60175,2470.857,2023-10-02T10:16:21Z
2023-10-02T08:17:01Z,42.805,6.029,13.3063,4.60157,2470.871,2023-10-02T10:19:24Z
2023-10-02T08:20:04Z,42.805,6.029,13.3084,4.60148,2470.843,2023-10-02T10:22:27Z
2023-10-02T08:23:07Z,42.805,6.029,13.3082,4.60144,2470.857,2023-10-02T10:25:30Z
2023-10-02T08:26:10Z,42.805,6.029,13.3084,4.60144,2470.88,2023-10-02T10:28:33Z
2023-10-02T08:29:13Z,42.805,6.029,13.3075,4.60190,2470.871,2023-10-02T10:31:36Z
2023-10-02T08:32:16Z,42.805,6.029,13.3101,4.60162,2470.857,2023-10-02T10:34:40Z
2023-10-02T08:35:19Z,42.805,6.029,13.3089,4.60120,2470.88,2023-10-02T10:37:43Z
2023-10-02T08:38:22Z,42.805,6.029,13.3069,4.60142,2470.88,2023-10-02T10:40:46Z
2023-10-02T08:41:25Z,42.805,6.029,13.3070,4.60160,2470.857,2023-10-02T10:43:49Z
2023-10-02T08:44:28Z,42.805,6.029,13.3085,4.60125,2470.871,2023-10-02T10:46:52Z
2023-10-02T08:47:32Z,42.805,6.029,13.3048,4.60143,2470.857,2023-10-02T10:49:55Z
2023-10-02T08:50:35Z,42.805,6.029,13.3051,4.60134,2470.833,2023-10-02T10:52:58Z
2023-10-02T08:53:38Z,42.805,6.029,13.3072,4.60132,2470.857,2023-10-02T10:56:01Z
2023-10-02T08:56:41Z,42.805,6.029,13.3070,4.60141,2470.857,2023-10-02T10:59:04Z
2023-10-02T08:59:44Z,42.805,6.029,13.3076,4.60162,2470.82,2023-10-02T11:02:07Z
2023-10-02T09:02:47Z,42.805,6.029,13.3079,4.60156,2470.88,2023-10-02T11:05:10Z
2023-10-02T09:05:50Z,42.805,6.029,13.3096,4.60165,2470.904,2023-10-02T11:08:13Z
2023-10-02T09:08:53Z,42.805,6.029,13.3084,4.60150,2470.857,2023-10-02T11:11:17Z
2023-10-02T09:11:56Z,42.805,6.029,13.3081,4.60133,2470.88,2023-10-02T11:14:20Z
2023-10-02T09:14:59Z,42.805,6.029,13.3087,4.60165,2470.88,2023-10-02T11:17:23Z
2023-10-02T09:18:02Z,42.805,6.029,13.3082,4.60137,2470.833,2023-10-02T11:20:26Z
2023-10-02T09:21:05Z,42.805,6.029,13.3082,4.60167,2470.871,2023-10-02T11:23:29Z
2023-10-02T09:24:09Z,42.805,6.029,13.3087,4.60119,2470.857,2023-10-02T11:26:32Z
2023-10-02T09:27:12Z,42.805,6.029,13.3117,4.60125,2470.833,2023-10-02T11:29:35Z
2023-10-02T09:30:15Z,42.805,6.029,13.3099,4.60133,2470.871,2023-10-02T11:32:38Z
2023-10-02T09:33:18Z,42.805,6.029,13.3091,4.60131,2470.894,2023-10-02T11:35:41Z
2023-10-02T09:36:21Z,42.805,6.029,13.3089,4.60142,2470.857,2023-10-02T11:38:44Z
2023-10-02T09:39:24Z,42.805,6.029,13.3073,4.60149,2470.847,2023-10-02T11:41:47Z
2023-10-02T09:42:27Z,42.805,6.029,13.3076,4.60157,2470.833,2023-10-02T11:44:50Z
2023-10-02T09:45:30Z,42.805,6.029,13.3070,4.60170,2470.871,2023-10-02T11:47:54Z
2023-10-02T09:48:33Z,42.805,6.029,13.3074,4.60175,2470.81,2023-10-02T11:50:57Z
2023-10-02T09:51:36Z,42.805,6.029,13.3085,4.60210,2470.847,2023-10-02T11:54:00Z
2023-10-02T09:54:39Z,42.805,6.029,13.3075,4.60148,2470.81,2023-10-02T11:57:03Z
2023-10-02T09:57:42Z,42.805,6.029,13.3092,4.60150,2470.871,2023-10-02T12:00:06Z
2023-10-02T10:00:45Z,42.805,6.029,13.3086,4.60143,2470.857,2023-10-02T12:03:09Z
2023-10-02T10:03:49Z,42.805,6.029,13.3072,4.60156,2470.833,2023-10-02T12:06:12Z
2023-10-02T10:06:52Z,42.805,6.029,13.3064,4.60186,2470.81,2023-10-02T12:09:15Z
2023-10-02T10:09:55Z,42.805,6.029,13.3062,4.60165,2470.857,2023-10-02T12:12:18Z
2023-10-02T10:12:58Z,42.805,6.029,13.3084,4.60190,2470.824,2023-10-02T12:15:21Z
2023-10-02T10:16:01Z,42.805,6.029,13.3061,4.60177,2470.871,2023-10-02T12:18:24Z
2023-10-02T10:19:04Z,42.805,6.029,13.3060,4.60178,2470.824,2023-10-02T12:21:27Z
2023-10-02T10:22:07Z,42.805,6.029,13.3059,4.60196,2470.847,2023-10-02T12:24:30Z
2023-10-02T10:25:10Z,42.805,6.029,13.3069,4.60177,2470.847,2023-10-02T12:27:34Z
2023-10-02T10:28:13Z,42.805,6.029,13.3065,4.60182,2470.847,2023-10-02T12:30:37Z
2023-10-02T10:31:16Z,42.805,6.029,13.3054,4.60203,2470.847,2023-10-02T12:33:39Z
2023-10-02T10:34:19Z,42.805,6.029,13.3065,4.60175,2470.833,2023-10-02T12:36:42Z
2023-10-02T10:37:22Z,42.805,6.029,13.3085,4.60172,2470.81,2023-10-02T12:39:45Z
2023-10-02T10:40:25Z,42.805,6.029,13.3056,4.60188,2470.871,2023-10-02T12:42:48Z
2023-10-02T10:43:28Z,42.805,6.029,13.3060,4.60191,2470.81,2023-10-02T12:45:52Z
2023-10-02T10:46:31Z,42.805,6.029,13.3054,4.60180,2470.824,2023-10-02T12:48:55Z
2023-10-02T10:49:34Z,42.805,6.029,13.3077,4.60186,2470.847,2023-10-02T12:51:58Z
2023-10-02T10:52:37Z,42.805,6.029,13.3074,4.60198,2470.824,2023-10-02T12:55:01Z
2023-10-02T10:55:40Z,42.805,6.029,13.3061,4.60198,2470.824,2023-10-02T12:58:04Z
2023-10-02T10:58:44Z,42.805,6.029,13.3063,4.60190,2470.824,2023-10-02T13:01:07Z
2023-10-02T11:01:47Z,42.805,6.029,13.3054,4.60204,2470.777,2023-10-02T13:04:10Z
2023-10-02T11:04:50Z,42.805,6.029,13.3112,4.60170,2470.824,2023-10-02T13:07:13Z
2023-10-02T11:07:53Z,42.805,6.029,13.3049,4.60185,2470.787,2023-10-02T13:10:16Z
2023-10-02T11:10:56Z,42.805,6.029,13.3069,4.60195,2470.787,2023-10-02T13:13:19Z
2023-10-02T11:13:59Z,42.805,6.029,13.3049,4.60153,2470.787,2023-10-02T13:16:22Z
2023-10-02T11:17:02Z,42.805,6.029,13.3057,4.60169,2470.763,2023-10-02T13:19:25Z
2023-10-02T11:20:05Z,42.805,6.029,13.3067,4.60170,2470.824,2023-10-02T13:22:29Z
2023-10-02T11:23:08Z,42.805,6.029,13.3061,4.60176,2470.787,2023-10-02T13:25:32Z
2023-10-02T11:26:11Z,42.805,6.029,13.3054,4.60204,2470.777,2023-10-02T13:28:35Z
2023-10-02T11:29:14Z,42.805,6.029,13.3054,4.60180,2470.763,2023-10-02T13:31:38Z
2023-10-02T11:32:17Z,42.805,6.029,13.3062,4.60144,2470.81,2023-10-02T13:34:41Z
2023-10-02T11:35:20Z,42.805,6.029,13.3082,4.60157,2470.763,2023-10-02T13:37:44Z
2023-10-02T11:38:24Z,42.805,6.029,13.3069,4.60147,2470.763,2023-10-02T13:40:47Z
2023-10-02T11:41:27Z,42.805,6.029,13.3069,4.60185,2470.8,2023-10-02T13:43:50Z
2023-10-02T11:44:30Z,42.805,6.029,13.3061,4.60184,2470.763,2023-10-02T13:46:53Z
2023-10-02T11:47:33Z,42.805,6.029,13.3062,4.60163,2470.763,2023-10-02T13:49:56Z
2023-10-02T11:50:36Z,42.805,6.029,13.3062,4.60193,2470.763,2023-10-02T13:52:59Z
2023-10-02T11:53:39Z,42.805,6.029,13.3056,4.60169,2470.777,2023-10-02T13:56:02Z
2023-10-02T11:56:42Z,42.805,6.029,13.3050,4.60178,2470.763,2023-10-02T13:59:05Z
2023-10-02T11:59:45Z,42.805,6.029,13.3064,4.60180,2470.74,2023-10-02T14:02:09Z
2023-10-02T12:02:48Z,42.805,6.029,13.3056,4.60168,2470.763,2023-10-02T14:05:12Z
2023-10-02T12:05:51Z,42.805,6.029,13.3063,4.60176,2470.777,2023-10-02T14:08:15Z
2023-10-02T12:08:54Z,42.805,6.029,13.3071,4.60170,2470.777,2023-10-02T14:11:18Z
2023-10-02T12:11:57Z,42.805,6.029,13.3063,4.60193,2470.74,2023-10-02T14:14:21Z
2023-10-02T12:15:01Z,42.805,6.029,13.3105,4.60162,2470.763,2023-10-02T14:17:24Z
2023-10-02T12:18:04Z,42.805,6.029,13.3062,4.60193,2470.763,2023-10-02T14:20:27Z
2023-10-02T12:21:07Z,42.805,6.029,13.3077,4.60194,2470.754,2023-10-02T14:23:30Z
2023-10-02T12:24:10Z,42.805,6.029,13.3061,4.60176,2470.74,2023-10-02T14:26:33Z
2023-10-02T12:27:13Z,42.805,6.029,13.3082,4.60225,2470.74,2023-10-02T14:29:36Z
2023-10-02T12:30:15Z,42.805,6.029,13.3058,4.60156,2470.763,2023-10-02T14:32:38Z
2023-10-02T12:33:18Z,42.805,6.029,13.3073,4.60185,2470.754,2023-10-02T14:35:41Z
2023-10-02T12:36:21Z,42.805,6.029,13.3056,4.60181,2470.73,2023-10-02T14:38:45Z
2023-10-02T12:39:24Z,42.805,6.029,13.3067,4.60183,2470.777,2023-10-02T14:41:48Z
2023-10-02T12:42:27Z,42.805,6.029,13.3063,4.60144,2470.74,2023-10-02T14:44:51Z
2023-10-02T12:45:30Z,42.805,6.029,13.3063,4.60156,2470.763,2023-10-02T14:47:54Z
2023-10-02T12:48:33Z,42.805,6.029,13.3069,4.60178,2470.74,2023-10-02T14:50:57Z
2023-10-02T12:51:36Z,42.805,6.029,13.3082,4.60181,2470.754,2023-10-02T14:54:00Z
2023-10-02T12:54:40Z,42.805,6.029,13.3068,4.60129,2470.717,2023-10-02T14:57:03Z
2023-10-02T12:57:43Z,42.805,6.029,13.3084,4.60180,2470.754,2023-10-02T15:00:06Z
2023-10-02T13:00:46Z,42.805,6.029,13.3070,4.60159,2470.73,2023-10-02T15:03:09Z
2023-10-02T13:03:49Z,42.805,6.029,13.3068,4.60167,2470.73,2023-10-02T15:06:12Z
2023-10-02T13:06:52Z,42.805,6.029,13.3058,4.60175,2470.693,2023-10-02T15:09:15Z
2023-10-02T13:09:55Z,42.805,6.029,13.3094,4.60151,2470.73,2023-10-02T15:12:18Z
2023-10-02T13:12:58Z,42.805,6.029,13.3117,4.60157,2470.73,2023-10-02T15:15:21Z
2023-10-02T13:16:01Z,42.805,6.029,13.3083,4.60192,2470.717,2023-10-02T15:18:25Z
2023-10-02T13:19:04Z,42.805,6.029,13.3082,4.60176,2470.74,2023-10-02T15:21:28Z
2023-10-02T13:22:07Z,42.805,6.029,13.3069,4.60160,2470.73,2023-10-02T15:24:31Z
2023-10-02T13:25:10Z,42.805,6.029,13.3058,4.60186,2470.717,2023-10-02T15:27:34Z
2023-10-02T13:28:13Z,42.805,6.029,13.3059,4.60192,2470.717,2023-10-02T15:30:37Z
2023-10-02T13:31:17Z,42.805,6.029,13.3058,4.60178,2470.684,2023-10-02T15:33:40Z
2023-10-02T13:34:20Z,42.805,6.029,13.3058,4.60190,2470.717,2023-10-02T15:36:43Z
2023-10-02T13:37:23Z,42.805,6.029,13.3057,4.60200,2470.67,2023-10-02T15:39:46Z
2023-10-02T13:40:26Z,42.805,6.029,13.3067,4.60184,2470.717,2023-10-02T15:42:49Z
2023-10-02T13:43:29Z,42.805,6.029,13.3053,4.60188,2470.67,2023-10-02T15:45:52Z
2023-10-02T13:46:32Z,42.805,6.029,13.3058,4.60194,2470.73,2023-10-02T15:48:55Z
2023-10-02T13:49:35Z,42.805,6.029,13.3073,4.60179,2470.693,2023-10-02T15:51:58Z
2023-10-02T13:52:38Z,42.805,6.029,13.3072,4.60126,2470.707,2023-10-02T15:55:02Z
2023-10-02T13:55:41Z,42.805,6.029,13.3072,4.60167,2470.707,2023-10-02T15:58:05Z
2023-10-02T13:58:44Z,42.805,6.029,13.3083,4.60132,2470.693,2023-10-02T16:01:08Z
2023-10-02T14:01:47Z,42.805,6.029,13.3069,4.60135,2470.707,2023-10-02T16:04:11Z
2023-10-02T14:04:50Z,42.805,6.029,13.3074,4.60155,2470.707,2023-10-02T16:07:14Z
2023-10-02T14:07:54Z,42.805,6.029,13.3063,4.60126,2470.693,2023-10-02T16:10:17Z
2023-10-02T14:10:57Z,42.805,6.029,13.3074,4.60114,2470.67,2023-10-02T16:13:20Z
2023-10-02T14:14:00Z,42.805,6.029,13.3072,4.60121,2470.684,2023-10-02T16:16:23Z
2023-10-02T14:17:03Z,42.805,6.029,13.3087,4.60121,2470.646,2023-10-02T16:19:26Z
2023-10-02T14:20:06Z,42.805,6.029,13.3076,4.60119,2470.707,2023-10-02T16:22:29Z
2023-10-02T14:23:09Z,42.805,6.029,13.3060,4.60122,2470.67,2023-10-02T16:25:32Z
2023-10-02T14:26:12Z,42.805,6.029,13.3051,4.60114,2470.67,2023-10-02T16:28:35Z
2023-10-02T14:29:15Z,42.805,6.029,13.3057,4.60117,2470.67,2023-10-02T16:31:39Z
2023-10-02T14:32:18Z,42.805,6.029,13.3071,4.60117,2470.717,2023-10-02T16:34:42Z
2023-10-02T14:35:21Z,42.805,6.029,13.3064,4.60110,2470.67,2023-10-02T16:37:45Z
2023-10-02T14:38:25Z,42.805,6.029,13.3031,4.60110,2470.67,2023-10-02T16:40:48Z
2023-10-02T14:41:28Z,42.805,6.029,13.3034,4.60119,2470.707,2023-10-02T16:43:51Z
2023-10-02T14:44:31Z,42.805,6.029,13.3031,4.60110,2470.661,2023-10-02T16:46:54Z
2023-10-02T14:47:34Z,42.805,6.029,13.3031,4.60102,2470.684,2023-10-02T16:49:57Z
2023-10-02T14:50:37Z,42.805,6.029,13.3028,4.60104,2470.684,2023-10-02T16:53:00Z
2023-10-02T14:53:40Z,42.805,6.029,13.3031,4.60097,2470.67,2023-10-02T16:56:03Z
2023-10-02T14:56:43Z,42.805,6.029,13.3031,4.60099,2470.693,2023-10-02T16:59:06Z
2023-10-02T14:59:46Z,42.805,6.029,13.3030,4.60099,2470.684,2023-10-02T17:02:10Z
2023-10-02T15:02:49Z,42.805,6.029,13.3031,4.60097,2470.67,2023-10-02T17:05:13Z